Location: T�bingen+AIT
(48.5342°N, 9.0700°E)
Time: 15:09:44
(UTC+01:00)

USA 215 - Pass Details

Date: 14 September 2017
Orbit: 1101 x 1107 km, 123.0° (Epoch: 10 November)

Event Time Altitude Azimuth Distance (km) Brightness Sun altitude
Rises 23:40:49 0° 56° (ENE) 3,924 6.2 -34.1°
Reaches altitude 10° 23:43:18 10° 55° (NE) 2,965 5.6 -34.3°
Enters shadow 23:47:42 45° 39° (NE) 1,474 3.9 -34.7°
Exits shadow 23:51:47 46° 270° (W) 1,445 3.9 -35.0°
Drops below altitude 10° 23:56:16 10° 253° (WSW) 2,960 5.6 -35.3°
Sets 23:58:45 0° 251° (WSW) 3,917 6.2 -35.5°
